{"data":{"norad_id":68226,"intl_designator":"2026-053V","name":"STARLINK-37038","alt_names":[],"object_type":"PAYLOAD","status":"ACTIVE","operator":null,"country":"US","launch_date":"2026-03-17","launch_site_code":"AFWTR","launch_vehicle":null,"mission":null,"orbit_class":"UNKNOWN","rcs_meters":null,"size_class":null,"mass_kg":null,"dimensions":null,"purposes":["comms"],"wikipedia_slug":null,"has_3d_model":false,"image_url":null,"decayed_at":null,"tle_current":{"epoch":"2026-05-25T02:35:43.797984Z","epoch_age_seconds":62537,"freshness":"FRESH","line1":"1 68226U 26053V   26145.10814581  .00010796  00000+0  33621-3 0  9996","line2":"2 68226  97.2867  20.6230 0002952  77.6549 282.5024 15.33446134 11913","mean_motion":15.33446134,"eccentricity":0.0002952,"inclination_deg":97.2867,"raan_deg":20.623,"arg_perigee_deg":77.6549,"mean_anomaly_deg":282.5024,"bstar":0.00033621,"rev_number":1191,"period_min":93.906135212181,"perigee_km":463.51954710254,"apogee_km":467.56005388555,"semimajor_km":6843.676800494,"source":"CELESTRAK","updated_at":"2026-05-25T13:38:21.881283Z"}}}